Regional Weather Roundup
Issued by NWS Albany, NY

Home | Current Version | Previous Version | Text Only | Print | Product List | Glossary On
Versions: 1 2 3 4 5 6 7 8 9 10 11 12 13 14 15 16 17 18 19 20 21 22 23 24 25 26 27
000
ASUS41 KALY 192110
RWRALY

NEW YORK STATE HOURLY WEATHER ROUNDUP
NATIONAL WEATHER SERVICE ALBANY NY
400 PM EST FRI JAN 19 2018

NOTE: "FAIR" INDICATES FEW OR NO CLOUDS BELOW 12,000 FEET WITH NO
SIGNIFICANT WEATHER AND/OR NO OBSTRUCTIONS TO VISIBILITY.

NYZ032-033-038>043-046>054-057>066-NYZ062>081-082-084-192200-
EAST


CITY           SKY/WX    TMP DP  RH WIND       PRES   REMARKS
ALBANY         CLOUDY    30  18  60 S3        29.96S
GLENS FALLS    CLOUDY    27  19  72 S7        29.92F WCI  19
POUGHKEEPSIE   FAIR      35  16  45 S5        29.95S WCI  31
NEWBURGH       PTCLDY    34  19  55 W7        29.95S WCI  28
MONTGOMERY     FAIR      33  16  49 SW7       29.93S WCI  27
WHITE PLAINS   FAIR      34  16  47 SW5       29.95S WCI  30
ISLIP          MOCLDY    37  17  44 W5        29.98R WCI  33
NEW YORK CITY  FAIR      38  16  40 SW6       29.98R WCI  33
CENTRAL PARK   FAIR      37  16  42 VRB6      30.00R WCI  32
$$

NYZ005>009-017-018-044>046-055-056-192200-
CENTRAL


CITY           SKY/WX    TMP DP  RH WIND       PRES   REMARKS
FULTON         FAIR      33  17  51 S8        29.88S WCI  26
SYRACUSE       FAIR      32  19  58 SW5       29.89F WCI  27
ROME           FAIR      30  19  63 E3        29.91F
ELMIRA         FAIR      42  20  41 SW12      29.87F
BINGHAMTON     FAIR      32  16  51 SW7       29.86S WCI  26
MONTICELLO     FAIR      32  16  51 W5        29.91S WCI  27
$$

NYZ026>034-041>043-087-192200-
NORTH


CITY           SKY/WX    TMP DP  RH WIND       PRES   REMARKS
WATERTOWN      FAIR      32  24  72 SW15      29.86R WCI  22
FORT DRUM      NOT AVBL
OGDENSBURG     CLOUDY    32  27  81 SW12G20   29.83R WCI  23
MASSENA        CLOUDY    31  28  89 SW14      29.83S WCI  21
SARANAC LAKE   CLOUDY    23  22  96 SW12      29.75F FOG     WCI  12
PLATTSBURGH    CLOUDY    28  20  71 SE8       29.85F WCI  20
$$

NYZ001>004-010>016-019>021-085-192200-
WEST


CITY           SKY/WX    TMP DP  RH WIND       PRES   REMARKS
NIAGARA FALLS  FAIR      35  19  52 SW22G35   29.83F WCI  23
BUFFALO        FAIR      33  21  61 SW20G28   29.85S WCI  21
DUNKIRK        FAIR      38  21  50 SW14      29.88F WCI  30
JAMESTOWN      FAIR      35  18  49 SW16      29.87S WCI  25
WELLSVILLE     FAIR      38  19  46 SW10G20   29.87R WCI  31
ROCHESTER      FAIR      36  20  52 SW8       29.85F WCI  30
PENN YAN       FAIR      38  17  42 S9        29.85F WCI  31
$$

             KEY
       WCI = WIND CHILL INDEX
       VSB = VISIBILITY
       HX  = HEAT INDEX
$$




USA.gov is the U.S. government's official web portal to all federal, state and local government web resources and services.